Regional Weather Roundup
Issued by NWS

Home | Current Version | Previous Version | Graphics & Text | Print | Product List | Glossary On
Versions: 1 2 3 4 5 6 7 8 9 10 11 12 13 14 15 16 17 18 19 20 21 22 23 24 25 26 27 28 29 30 31 32 33 34 35 36 37 38 39 40 41 42 43 44 45 46 47 48 49 50
000
ASUS43 KIND 022209
RWRIN

WEATHER ROUNDUP FOR INDIANA
NATIONAL WEATHER SERVICE INDIANAPOLIS IN
500 PM EST MON MAR 02 2015

NOTE: "FAIR" INDICATES FEW OR NO CLOUDS BELOW 12,000 FEET WITH NO
SIGNIFICANT WEATHER AND/OR OBSTRUCTIONS TO VISIBILITY.

* - STATION DOES NOT REPORT WEATHER SUCH AS PRECIPITATION OR FOG.

+ - STATION NOT QUALITY CONTROLLED BY THE NATIONAL WEATHER SERVICE.
    USE DATA WITH CAUTION...ESPECIALLY DEWPOINT AND RELATIVE
    HUMIDITY OBSERVATIONS.

INZ001>003-010>013-019-020-022300-
NORTHWEST INDIANA

CITY           SKY/WX    TMP DP  RH WIND       PRES   REMARKS
GARY /AIRPORT/ PTSUNNY   30  16  55 NE8       30.44F WCI  23
KNOX *+          N/A     27   1  33 N5        30.43F WCI  21
LA PORTE +     SUNNY     29  17  59 S3        30.43F
MICHIGAN CITY+ SUNNY     28  12  50 N3        30.44F
MONTICELLO +   SUNNY     24  15  68 CALM      30.44F
RENSSELAER +   SUNNY     28  19  69 S3        30.44F
VALPARAISO     SUNNY     27  12  53 S5        30.42F WCI  22

$$

LMZ046-743>745-022300-
SOUTHERN LAKE MICHIGAN

STATION/POSITION TIME  TEMP WIND        PRES
                       AIR  DIR/SP/G
                 (UTC) (F)  (DEG/KT/KT) (MB)
MICHIGAN CITY    2200   24   30/  5/  5   N/A

$$

INZ004-005-014>016-021>024-022300-
NORTH CENTRAL INDIANA

CITY           SKY/WX    TMP DP  RH WIND       PRES   REMARKS
ELKHART        SUNNY     30   9  40 W3        30.43F
GOSHEN         MOSUNNY   27  14  58 SW6       30.42F WCI  20
LOGANSPORT +   SUNNY     23  16  74 S5        30.45F WCI  17
PERU/GRISSOM   SUNNY     26  14  60 SW5       30.42F WCI  20
ROCHESTER +    SUNNY     32  12  43 S3        30.44F
SOUTH BEND     MOSUNNY   31  14  49 CALM      30.43F
WARSAW +       MOSUNNY   28  14  54 CALM      30.42F

$$

INZ006>009-017-018-025>027-022300-
NORTHEAST INDIANA

CITY           SKY/WX    TMP DP  RH WIND       PRES   REMARKS
ANGOLA *+      SUNNY     27  16  63 N3        30.41F
AUBURN +       MOSUNNY   30  12  47 W5        30.43F WCI  25
FORT WAYNE     PTSUNNY   26  14  60 SW5       30.43F WCI  20
HUNTINGTON +   SUNNY     28   6  39 CALM      30.42F

$$

INZ028-029-035-036-043>045-051>053-022300-
WEST CENTRAL INDIANA

CITY           SKY/WX    TMP DP  RH WIND       PRES   REMARKS
CRAWFORDSVL +  MOSUNNY   25  10  52 SE3       30.46R
GREENCASTLE +  MOSUNNY   30  12  47 CALM      30.45R
LAFAYETTE      SUNNY     28  16  60 SW5       30.44S WCI  23
TERRE HAUTE    SUNNY     33  15  47 CALM      30.44S

$$

INZ030>032-037>040-046>048-054>057-064-065-022300-
CENTRAL INDIANA

CITY           SKY/WX    TMP DP  RH WIND       PRES   REMARKS
CP ATTERBURY + MOSUNNY   32  14  47 NE5       30.45F WCI  27
COLUMBUS       SUNNY     28  12  50 N3        30.45F
FRANKFORT +    MOSUNNY   26  18  72 SE6       30.46S WCI  19
GREENWOOD *+   MOSUNNY   28  10  47 SE7       30.45S WCI  21
INDIANAPOLIS   PTSUNNY   29  15  56 SE9       30.43R WCI  20
-EAGLE CREEK   MOSUNNY   30  15  53 SE8       30.43R WCI  22
KOKOMO *+      SUNNY     21  16  79 SE6       30.44S WCI  14
MARION +       SUNNY     23  13  66 CALM      30.44F
MT COMFORT *+  MOSUNNY   27   5  39 SE5       30.45R WCI  21
SHELBYVILLE    PTSUNNY   29  14  53 E5        30.44F WCI  24
ZIONSVILLE +   MOSUNNY   27  13  56 N5        30.44R WCI  21

$$

INZ033-034-041-042-049-050-058-059-022300-
EAST CENTRAL INDIANA

CITY           SKY/WX    TMP DP  RH WIND       PRES   REMARKS
MUNCIE         SUNNY     26  11  52 NW3       30.43F

$$

INZ060-061-067>069-081>083-085>088-022300-
SOUTHWEST INDIANA

CITY           SKY/WX    TMP DP  RH WIND       PRES   REMARKS
EVANSVILLE     PTSUNNY   39  16  39 CALM      30.44R
HUNTINGBURG *+ PTSUNNY   36  18  48 N8        30.43R
WASHINGTON +   MOSUNNY   32  20  62 NW3       30.44F

$$

INZ062-063-066-070>080-084-089>092-022300-
SOUTH CENTRAL AND SOUTHEAST INDIANA

CITY           SKY/WX    TMP DP  RH WIND       PRES   REMARKS
BLOOMINGTON    SUNNY     37  14  38 VRB5      30.41S
NORTH VERNON + MOSUNNY   32  16  51 N6        30.43F WCI  26
SEYMOUR +      SUNNY     34  16  47 NW6       30.44F WCI  29

$$




USA.gov is the U.S. government's official web portal to all federal, state and local government web resources and services.